Darwin, CA

3:22 PM PDT on August 27, 2016 (GMT -0700)
China Lake NAWS

Weather History for KNID - October, 2012

Change the Weather History Date:

Wednesday, October 24, 2012

  Actual Average Record
Temperature  
Mean Temperature 60 °F -  
Max Temperature 73 °F 72 °F 90 °F (2011)
Min Temperature 45 °F 47 °F 39 °F (1996)
Degree Days  
Heating Degree Days 5    
Growing Degree Days 10 (Base 50)    
Moisture  
Dew Point 26 °F    
Average Humidity 30    
Maximum Humidity 44    
Minimum Humidity 13    
Precipitation  
Precipitation 0.00 in - - ()
Sea Level Pressure  
Sea Level Pressure 29.93 in    
Wind  
Wind Speed 10 mph (SW)    
Max Wind Speed 16 mph    
Max Gust Speed 23 mph    
Visibility 10 miles    
Events      
Averages and records for this station are not official NWS values.
T = Trace of Precipitation, MM = Missing Value Source: NWS Daily Summary

Daily Weather History Graph

Daily Weather History Graph

Search for Another Location

Airport or City:

Trip Planner

Search our weather history database for the weather conditions in past years. The results will help you decide how hot, cold, wet, or windy it might be!

Date:

Astronomy

Oct. 24, 2012 Rise Set
Actual Time 7:05 AM PDT 6:03 PM PDT
Civil Twilight 6:39 AM PDT 6:29 PM PDT
Nautical Twilight 6:09 AM PDT 6:59 PM PDT
Astronomical Twilight 5:40 AM PDT 7:28 PM PDT
Moon 3:13 PM PDT (10/24) 2:15 AM PDT (10/24)
Length of Visible Light 11h 49m
Length of Day
10h 57m
Waxing Gibbous, 77% of the Moon is Illuminated
Oct 24
Waxing Gibbous
Oct 29
Full
Nov 6
Last Quarter
Nov 13
New
Nov 20
First Quarter

Hourly Weather History & Observations

Time (PDT) Temp. Windchill Dew Point Humidity Pressure Visibility Wind Dir Wind Speed Gust Speed Precip Events Conditions
12:56 AM 54.0 °F - 30.0 °F 40% 29.83 in 10.0 mi SW 10.4 mph - N/A   Clear
1:56 AM 53.1 °F - 30.0 °F 41% 29.84 in 10.0 mi SW 10.4 mph - N/A   Clear
2:56 AM 53.1 °F - 30.9 °F 43% 29.85 in 10.0 mi WSW 10.4 mph - N/A   Clear
3:56 AM 53.1 °F - 30.0 °F 41% 29.85 in 10.0 mi WSW 10.4 mph - N/A   Clear
4:56 AM 51.1 °F - 30.0 °F 44% 29.88 in 10.0 mi WSW 9.2 mph - N/A   Clear
5:56 AM 51.1 °F - 28.0 °F 41% 29.90 in 10.0 mi SSW 11.5 mph - N/A   Partly Cloudy
6:56 AM 53.1 °F - 28.9 °F 40% 29.92 in 10.0 mi West 16.1 mph 20.7 mph N/A   Scattered Clouds
7:56 AM 54.0 °F - 28.0 °F 37% 29.95 in 10.0 mi NE 4.6 mph - N/A   Clear
8:56 AM 57.9 °F - 27.0 °F 31% 29.98 in 10.0 mi Variable 3.5 mph - N/A   Clear
9:56 AM 63.0 °F - 23.0 °F 22% 29.97 in 10.0 mi WSW 9.2 mph - N/A   Clear
10:56 AM 64.9 °F - 24.1 °F 21% 29.97 in 10.0 mi West 9.2 mph - N/A   Clear
11:56 AM 66.9 °F - 24.1 °F 20% 29.96 in 10.0 mi West 8.1 mph - N/A   Clear
12:56 PM 68.0 °F - 24.1 °F 19% 29.94 in 10.0 mi Variable 4.6 mph - N/A   Clear
1:56 PM 71.1 °F - 25.0 °F 18% 29.92 in 10.0 mi SSW 16.1 mph 23.0 mph N/A   Clear
2:56 PM 72.0 °F - 21.0 °F 15% 29.89 in 10.0 mi SW 9.2 mph - N/A   Clear
3:56 PM 72.0 °F - 18.0 °F 13% 29.87 in 10.0 mi WSW 15.0 mph - N/A   Partly Cloudy
4:56 PM 71.1 °F - 19.0 °F 14% 29.88 in 10.0 mi WSW 9.2 mph - N/A   Clear
5:56 PM 64.9 °F - 23.0 °F 20% 29.91 in 10.0 mi West 10.4 mph - N/A   Clear
6:56 PM 61.0 °F - 25.0 °F 25% 29.94 in 10.0 mi SSW 8.1 mph - N/A   Clear
7:56 PM 57.9 °F - 28.0 °F 32% 29.98 in 10.0 mi South 11.5 mph - N/A   Clear
8:56 PM 55.9 °F - 28.0 °F 34% 30.00 in 10.0 mi South 11.5 mph - N/A   Clear
9:56 PM 53.1 °F - 26.1 °F 35% 30.01 in 10.0 mi SW 3.5 mph - N/A   Clear
10:56 PM 48.9 °F - 25.0 °F 39% 30.05 in 10.0 mi WSW 4.6 mph - N/A   Clear
11:56 PM 45.0 °F 42.6 °F 24.1 °F 44% 30.06 in 10.0 mi WSW 4.6 mph - N/A   Clear